Tulsa Jones, OK

1:44 PM CST on December 17, 2017 (GMT -0600)
Jones Jr.

Weather History for KRVS - January, 2013

Change the Weather History Date:

Wednesday, January 30, 2013

  Actual Average (KTUL) Record (KTUL)
Temperature  
Mean Temperature 34 °F -  
Max Temperature 42 °F 49 °F 74 °F (1931)
Min Temperature 25 °F 27 °F -6 °F (1949)
Degree Days  
Heating Degree Days 31    
Moisture  
Dew Point 26 °F    
Average Humidity 67    
Maximum Humidity 88    
Minimum Humidity 49    
Precipitation  
Precipitation 0.00 in - - ()
Sea Level Pressure  
Sea Level Pressure 29.88 in    
Wind  
Wind Speed 8 mph (NW)    
Max Wind Speed 20 mph    
Max Gust Speed 34 mph    
Visibility 10 miles    
Events      
Averages and records for this station are not official NWS values.
T = Trace of Precipitation, MM = Missing Value Source: NWS Daily Summary

Daily Weather History Graph

Daily Weather History Graph

Search for Another Location

Airport or City:

Trip Planner

Search our weather history database for the weather conditions in past years. The results will help you decide how hot, cold, wet, or windy it might be!

Date:

Astronomy

Jan. 30, 2013 Rise Set
Actual Time 7:25 AM CST 5:49 PM CST
Civil Twilight 6:58 AM CST 6:16 PM CST
Nautical Twilight 6:28 AM CST 6:46 PM CST
Astronomical Twilight 5:57 AM CST 7:17 PM CST
Moon 9:39 PM CST (1/30) 9:02 AM CST (1/30)
Length of Visible Light 11h 17m
Length of Day
10h 23m
Waning Gibbous, 87% of the Moon is Illuminated
Jan 30
Waning Gibbous
Feb 3
Last Quarter
Feb 10
New
Feb 17
First Quarter
Feb 25
Full

Hourly Weather History & Observations

Time (CST) Temp. Windchill Dew Point Humidity Pressure Visibility Wind Dir Wind Speed Gust Speed Precip Events Conditions
12:53 AM 42.1 °F 38.4 °F 35.1 °F 76% 29.65 in 10.0 mi WNW 5.8 mph - N/A   Overcast
1:53 AM 41.0 °F 38.0 °F 34.0 °F 76% 29.64 in 10.0 mi Variable 4.6 mph - N/A   Overcast
2:53 AM 39.9 °F 35.1 °F 34.0 °F 79% 29.66 in 10.0 mi Variable 6.9 mph - N/A   Overcast
3:01 AM 39.2 °F 35.9 °F 33.8 °F 81% 29.65 in 10.0 mi Variable 4.6 mph - N/A   Mostly Cloudy
3:23 AM 39.2 °F 35.0 °F 33.8 °F 81% 29.65 in 10.0 mi NW 5.8 mph - N/A   Overcast
3:53 AM 39.9 °F 32.9 °F 30.0 °F 68% 29.67 in 10.0 mi NW 11.5 mph 21.9 mph N/A   Overcast
4:53 AM 39.0 °F 31.4 °F 30.0 °F 70% 29.70 in 10.0 mi WNW 12.7 mph 21.9 mph N/A   Overcast
5:25 AM 39.2 °F 32.5 °F 30.2 °F 70% 29.70 in 10.0 mi NW 10.4 mph 18.4 mph N/A   Overcast
5:36 AM 39.2 °F 32.5 °F 28.4 °F 65% 29.70 in 10.0 mi NW 10.4 mph 21.9 mph N/A   Overcast
5:53 AM 37.9 °F 30.5 °F 28.9 °F 70% 29.74 in 10.0 mi WNW 11.5 mph 23.0 mph N/A   Overcast
6:53 AM 37.9 °F 30.5 °F 27.0 °F 65% 29.79 in 10.0 mi NNW 11.5 mph 23.0 mph N/A   Overcast
7:53 AM 37.9 °F 30.5 °F 26.1 °F 62% 29.83 in 10.0 mi NNW 11.5 mph 24.2 mph N/A   Overcast
8:53 AM 37.0 °F 27.7 °F 26.1 °F 65% 29.87 in 10.0 mi NNW 16.1 mph 28.8 mph N/A   Overcast
9:03 AM 37.4 °F 27.2 °F 24.8 °F 60% 29.86 in 10.0 mi NNW 19.6 mph 34.5 mph N/A   Overcast
9:53 AM 37.9 °F 29.2 °F 26.1 °F 62% 29.91 in 10.0 mi NW 15.0 mph 24.2 mph N/A   Overcast
10:14 AM 37.4 °F 29.8 °F 24.8 °F 60% 29.90 in 10.0 mi NW 11.5 mph 27.6 mph N/A   Overcast
10:41 AM 37.4 °F 30.3 °F 24.8 °F 60% 29.92 in 10.0 mi NNW 10.4 mph 24.2 mph N/A   Overcast
10:53 AM 37.9 °F 30.5 °F 25.0 °F 60% 29.95 in 10.0 mi NNW 11.5 mph 29.9 mph N/A   Overcast
11:01 AM 37.4 °F 29.8 °F 26.6 °F 65% 29.93 in 10.0 mi NW 11.5 mph 20.7 mph N/A   Overcast
11:29 AM 39.2 °F 32.0 °F 26.6 °F 61% 29.93 in 10.0 mi NNW 11.5 mph 19.6 mph N/A   Mostly Cloudy
11:53 AM 37.9 °F 32.7 °F 25.0 °F 60% 29.97 in 10.0 mi NNW 6.9 mph 23.0 mph N/A   Overcast
12:53 PM 39.0 °F 30.6 °F 23.0 °F 53% 29.97 in 10.0 mi NW 15.0 mph 23.0 mph N/A   Overcast
1:53 PM 39.9 °F 34.5 °F 23.0 °F 51% 29.98 in 10.0 mi NW 8.1 mph 21.9 mph N/A   Mostly Cloudy
2:53 PM 39.0 °F 31.8 °F 21.9 °F 50% 30.00 in 10.0 mi WNW 11.5 mph 19.6 mph N/A   Overcast
3:53 PM 39.0 °F 30.6 °F 21.0 °F 49% 30.01 in 10.0 mi NW 15.0 mph 24.2 mph N/A   Mostly Cloudy
4:53 PM 39.0 °F 35.7 °F 21.9 °F 50% 30.02 in 10.0 mi Variable 4.6 mph - N/A   Scattered Clouds
5:53 PM 37.0 °F 34.5 °F 21.0 °F 52% 30.04 in 10.0 mi Variable 3.5 mph - N/A   Clear
6:53 PM 33.1 °F - 21.9 °F 64% 30.06 in 10.0 mi Calm Calm - N/A   Clear
7:53 PM 30.0 °F - 23.0 °F 75% 30.09 in 10.0 mi Calm Calm - N/A   Clear
8:53 PM 27.0 °F - 23.0 °F 85% 30.10 in 10.0 mi Calm Calm - N/A   Clear
9:53 PM 27.0 °F - 21.9 °F 81% 30.11 in 10.0 mi Calm Calm - N/A   Clear
10:53 PM 26.1 °F 21.9 °F 21.0 °F 81% 30.10 in 9.0 mi SW 3.5 mph - N/A   Clear
11:53 PM 25.0 °F - 21.9 °F 88% 30.10 in 8.0 mi Calm Calm - N/A   Clear